Flag Weather past 2 weeks in Belize City, Belize

Now
79 °F

Partly sunny.


Feels Like: 81 °F
Forecast: N/A
Wind: 13 mph from North

Location: Belize / Phillip Goldston Intl. Airport

Current Time: Nov 26, 2014 at 3:59:19 PM

Latest Report: Nov 26, 2014 at 3:00 PM


Visibility: N/A

Pressure: 30.07 "Hg

Humidity: 70%

Dew point: 68 °F

Location of Belize CityLocation

Historic Weather in Belize City — Graph

°F

Belize City temperature yesterday

Maximum temperature yesterday: 90 °F (at 1:00 PM)
Minimum temperature yesterday: 77 °F (at 5:00 AM)
Average temperature yesterday: 83 °F

Past Weeks' High & Low Weather Summary

 TemperatureHumidityPressure
High90 °F (Nov 25, 1:00 PM)100% (Nov 15, 5:00 AM)30.14 "Hg (Nov 15, 5:00 AM)
Low66 °F (Nov 15, 5:00 AM)58% (Nov 14, 12:00 PM)29.78 "Hg (Nov 23, 4:00 PM)
Average79 °F85%29.97 "Hg
* Reported Nov 11 2:00 PM — Nov 26 2:00 PM, Belize City, Weather by CustomWeather, © 2014

Note: Actual official high and low records may vary slightly from our data, if they occured in-between our weather recording intervals... More about our weather records

Advertising

Belize City weather history for previous 24 hours

 ConditionsComfort  
Time TempWeatherWind HumidityBarometerVisibility
2:00 PM
Nov 26
81 °FPartly sunny.15 mph62%30.07 "HgN/A
1:00 PM81 °FPartly sunny.16 mph62%30.07 "HgN/A
12:00 PM77 °FPartly sunny.14 mph69%30.08 "HgN/A
11:00 AM77 °FPartly sunny.14 mph74%30.11 "HgN/A
10:00 AM75 °FBroken clouds.12 mph78%30.14 "HgN/A
9:00 AM73 °FPartly sunny.13 mph83%30.13 "HgN/A
8:00 AM73 °FPartly sunny.12 mph83%30.14 "HgN/A
7:00 AM73 °FSprinkles. Partly sunny.12 mph94%30.09 "HgN/A
6:00 AM75 °FPassing clouds.15 mph94%30.05 "HgN/A
5:00 AM75 °FPassing clouds.7 mph94%30.02 "HgN/A
11:00 PM
Nov 25
79 °FPartly cloudy.6 mph94%29.99 "HgN/A
10:00 PM79 °FThunderstorms. Passing clouds.15 mph94%29.99 "HgN/A
9:00 PM81 °FPassing clouds.No wind89%29.96 "HgN/A
6:00 PM82 °FPassing clouds.3 mph89%29.89 "HgN/A
5:00 PM84 °FScattered clouds.6 mph84%29.87 "HgN/A
4:00 PM86 °FScattered clouds.7 mph79%29.86 "HgN/A
3:00 PM86 °FScattered clouds.7 mph79%29.85 "HgN/A
Weather by CustomWeather, © 2014

See weather overviewHow to use our weather pages